This is the latest recevied weather packets stored in our database for station/object EA1EXV-11. If no packets are shown the sender has not sent any weather packets the latest 10 day(s).
| Time | Temp. | Humidity | Pressure | Rain* | Wind** | Luminosity | Snow |
|---|---|---|---|---|---|---|---|
| 1778305855 | 11.67° C | 76% | 1006.8 hPa | - | - | - | - |
| 1778304955 | 11.67° C | 77% | 1006.9 hPa | - | - | - | - |
| 1778304055 | 10.56° C | 77% | 1006.9 hPa | - | - | - | - |
| 1778303155 | 10.56° C | 77% | 1006.9 hPa | - | - | - | - |
| 1778302255 | 10.56° C | 76% | 1007 hPa | - | - | - | - |
| 1778301355 | 10.56° C | 76% | 1006.8 hPa | - | - | - | - |
| 1778300454 | 10.56° C | 75% | 1006.8 hPa | - | - | - | - |
| 1778299554 | 11.11° C | 75% | 1007 hPa | - | - | - | - |
| 1778298654 | 11.11° C | 75% | 1006.8 hPa | - | - | - | - |
| 1778297754 | 11.11° C | 75% | 1006.8 hPa | - | - | - | - |
| 1778296854 | 11.11° C | 75% | 1006.9 hPa | - | - | - | - |
| 1778295954 | 11.11° C | 76% | 1006.8 hPa | - | - | - | - |
| 1778295054 | 11.11° C | 76% | 1006.9 hPa | - | - | - | - |
| 1778294154 | 11.11° C | 77% | 1006.8 hPa | - | - | - | - |
| 1778293254 | 10.56° C | 77% | 1007.1 hPa | - | - | - | - |
| 1778292354 | 9.44° C | 77% | 1007.3 hPa | - | - | - | - |
| 1778291454 | 9.44° C | 77% | 1007.5 hPa | - | - | - | - |
| 1778290553 | 9.44° C | 77% | 1007.7 hPa | - | - | - | - |
| 1778289653 | 9.44° C | 77% | 1007.9 hPa | - | - | - | - |
| 1778288753 | 9.44° C | 77% | 1007.9 hPa | - | - | - | - |
| 1778287853 | 10° C | 77% | 1008.3 hPa | - | - | - | - |
| 1778286953 | 10° C | 77% | 1008.6 hPa | - | - | - | - |
| 1778286053 | 10° C | 77% | 1008.7 hPa | - | - | - | - |
| 1778285153 | 10.56° C | 77% | 1008.7 hPa | - | - | - | - |
| 1778284253 | 10° C | 77% | 1008.8 hPa | - | - | - | - |
* Rain since midnight (hover to see other rain measurements)
** Current wind speed in m/s (hover to see current wind gust speed)